This demonstration page uses our WeatherBlox Daily Observations layout. Learn more.

38.89511, -77.03637

Hourly Observations for October 14, 2018

Temp ( °F °C ) Dew Point ( °F °C ) Humidity (%) Winds ( mph kmh ) Pressure ( in mb ) Visibility ( mi km ) Precip ( " mm )
12:52 am 00:52 Mostly Clear 50 10 38 3.3 63 63 WNW 6 9 30.19 1022 10 16.0934 0 0
1:52 am 01:52 Mostly Clear 49 9.4 39 3.9 69 69 NNW 7 11 30.19 1022 10 16.0934 0 0
2:52 am 02:52 Mostly Cloudy 48 8.9 40 4.4 74 74 N 6 9 30.19 1022 10 16.0934 0 0
3:52 am 03:52 Mostly Cloudy 49 9.4 40 4.4 71 71 NNW 6 9 30.2 1023 10 16.0934 0 0
4:52 am 04:52 Cloudy 50 10 40 4.4 68 68 Calm 30.21 1023 10 16.0934 0 0
5:52 am 05:52 Cloudy 50 10 42 5.6 74 74 Calm 30.2 1023 10 16.0934 0 0
6:52 am 06:52 Cloudy 50 10 42 5.6 74 74 Calm 30.22 1023 10 16.0934 0 0
7:52 am 07:52 Mostly Cloudy 52 11.1 41 5 66 66 Calm 30.24 1024 10 16.0934 0 0
8:52 am 08:52 Cloudy 53 11.7 42 5.6 66 66 N 5 7 30.27 1025 10 16.0934 0 0
9:52 am 09:52 Cloudy 54 12.2 43 6.1 67 67 Calm 30.27 1025 10 16.0934 0 0
10:52 am 10:52 Cloudy with Light Rain 54 12.2 43 6.1 67 67 Calm 30.29 1026 10 16.0934 0 0.0254
11:52 am 11:52 Cloudy with Light Rain 54 12.2 45 7.2 72 72 Calm 30.27 1025 10 16.0934 0.01 0.254
12:52 pm 12:52 Cloudy 56 13.3 46 7.8 70 70 Calm 30.27 1025 10 16.0934 0 0.0254
1:52 pm 13:52 Cloudy 57 13.9 46 7.8 67 67 SSE 5 7 30.24 1024 10 16.0934 0 0
2:52 pm 14:52 Cloudy 59 15 48 8.9 67 67 S 9 15 30.23 1024 10 16.0934 0 0
3:52 pm 15:52 Cloudy 60 15.6 48 8.9 65 65 S 5 7 30.22 1024 10 16.0934 0 0
4:52 pm 16:52 Cloudy 60 15.6 49 9.4 67 67 Calm 30.22 1023 10 16.0934 0 0
5:52 pm 17:52 Cloudy 60 15.6 49 9.4 67 67 SSW 5 7 30.21 1023 10 16.0934 0 0
6:52 pm 18:52 Cloudy 60 15.6 50 10 70 70 SSW 6 9 30.21 1023 10 16.0934 0 0
7:52 pm 19:52 Cloudy 60 15.6 51 10.6 72 72 SSW 8 13 30.21 1023 10 16.0934 0 0
8:52 pm 20:52 Cloudy 60 15.6 51 10.6 72 72 SSW 7 11 30.21 1023 10 16.0934 0 0
9:52 pm 21:52 Cloudy 60 15.6 52 11.1 75 75 SW 3 6 30.22 1023 10 16.0934 0 0
10:07 pm 22:07 Cloudy 60 15.6 53 11.7 78 78 SSW 3 6 30.21 1023 10 16.0934 0 0
10:28 pm 22:28 Cloudy 60 15.6 53 11.7 78 78 SSW 5 7 30.21 1023 10 16.0934 0 0
10:31 pm 22:31 Cloudy 60 15.6 53 11.7 78 78 SSW 7 11 30.21 1023 10 16.0934 0 0
10:34 pm 22:34 Cloudy 60 15.6 53 11.7 78 78 SSW 6 9 30.21 1023 10 16.0934 0 0
10:52 pm 22:52 Cloudy 60 15.6 52 11.1 75 75 SSW 6 9 30.22 1023 10 16.0934 0 0
11:19 pm 23:19 Cloudy with Light Rain 59 15 54 12.2 83 83 SW 6 9 30.21 1023 10 16.0934 0 0.0254
11:41 pm 23:41 Cloudy with Light Rain 58 14.4 54 12.2 87 87 SW 5 7 30.21 1023 10 16.0934 0 0.0254
11:52 pm 23:52 Cloudy with Light Rain 58 14.4 54 12.2 87 87 SW 5 7 30.21 1023 10 16.0934 0 0.0254

Powered by AerisWeather